Regional Weather Roundup
Issued by NWS Northern Indiana

Home | Current Version | Previous Version | Text Only | Print | Product List | Glossary On
Versions: 1 2 3 4 5 6 7 8 9 10 11 12 13 14 15 16 17 18 19 20 21 22 23 24 25 26 27 28 29 30 31 32 33 34 35 36 37 38 39 40 41 42 43 44 45 46 47 48 49 50
384
ASUS43 KIWX 301400
RWRIWX

KIWX WEATHER ROUNDUP
NATIONAL WEATHER SERVICE NORTHERN INDIANA
1000 AM EDT THU MAR 30 2017

NOTE: "FAIR" INDICATES FEW OR NO CLOUDS BELOW 12,000 FEET WITH NO
SIGNIFICANT WEATHER AND/OR OBSTRUCTIONS TO VISIBILITY.

* THESE STATIONS ARE NOT UNDER NWS QUALITY CONTROL. THEY ALSO MAY NOT
  REPORT WEATHER SUCH AS PRECIPITATION OR FOG.

INZ001>027-301500-
NORTHERN INDIANA

CITY           SKY/WX    TMP DP  RH WIND       PRES   REMARKS
GARY*          PTSUNNY   45  41  87 E17G32    29.75F
KNOX*          CLOUDY    41  28  60 E21G28    29.75F
SOUTH BEND     CLOUDY    41  32  70 E18G26    29.79F
ELKHART*       LGT RAIN  41  37  87 E17G23    29.83F FOG
GOSHEN         LGT RAIN  41  37  86 E22G29    29.82F
MONTICELLO*    LGT RAIN  43  40  90 E13G18    29.77R
ANGOLA*        CLOUDY    37  34  87 E12       29.91F
FORT WAYNE     CLOUDY    43  39  86 NE20G26   29.86F

$$
INZ028>050-301500-
CENTRAL INDIANA

CITY           SKY/WX    TMP DP  RH WIND       PRES   REMARKS
LAFAYETTE      TSTM      45  43  93 E14       29.74S FOG
KOKOMO*        CLOUDY    44  41  89 E17       29.79F
MUNCIE*        LGT RAIN  48  42  80 NE13      29.81F
INDIANAPOLIS   CLOUDY    55  48  77 E10       29.75F

$$
MIZ043>046-050>051-056>058-064>065-071>073-077>080-301500-
SOUTHWEST LOWER MICHIGAN

CITY           SKY/WX    TMP DP  RH WIND       PRES   REMARKS
BATTLE CREEK   LGT RAIN  39  37  92 E16G25    29.93F
BENTON HARBOR  CLOUDY    42  38  85 E18G30    29.81F
COLDWATER*     LGT SNOW  39  38  94 E14G23    29.91F
HILLSDALE*     RAIN      36  34  93 E15G21    29.95R
HOLLAND        RAIN      39  32  76 E16       29.88F
GRAND RAPIDS   LGT RAIN  37  37 100 E21G29    29.93F FOG
KALAMAZOO      LGT RAIN  40  36  86 E13G24    29.89F FOG
STURGIS*       LGT RAIN  39  37  94 E15G24    29.88F
THREE RIVERS*  LGT RAIN  40  37  92 E16       29.88F

$$
OHZ001>008-015>018-024>025-301500-
NORTHWEST OHIO

CITY           SKY/WX    TMP DP  RH WIND       PRES   REMARKS
DEFIANCE       CLOUDY    40  37  89 NE13G25   29.94R
FINDLAY        CLOUDY    44  38  79 NE12G23   29.88F
TOLEDO EXPRESS CLOUDY    39  37  92 NE15      29.95F
TOLEDO METCALF CLOUDY    40  38  93 NE14G22   29.96F
LIMA           CLOUDY    48  40  73 NE10      29.85F

$$
AND FOR LAKE MICHIGAN COASTAL AND OPEN LAKE BUOY OBSERVATIONS

STATION/POSITION TEMP    WIND        PRES    VSBY  WAVE
                 AIR SEA DIR/SP/G                  HT/PER
                 (F)     (DEG/KT/KT) (MB)    (MI)  (FT/S)
CALUMET HARBOR    41      90/ 10/ 18 1007.3F
MICHIGAN CITY     42     100/ 18/ 22   N/A
BURNS HARBOR      43     100/ 13/ 22 1007.8F
SAINT JOSEPH      41      60/  4/ 11 1012.2

$$
&&




USA.gov is the U.S. government's official web portal to all federal, state and local government web resources and services.